Time,TemperatureF,DewpointF,PressureIn,WindDirection,WindDirectionDegrees,WindSpeedMPH,WindSpeedGustMPH,Humidity,HourlyPrecipIn,Conditions,Clouds,dailyrainin,SoftwareType,DateUTC
2013-05-10 00:00:00,56.5,55.0,29.92,SW,215,0.0,0.0,93,0.00,,,1.33,oem by Ross Wheeler,2013-05-10 04:00:00,
2013-05-10 00:05:00,56.4,55.0,29.92,SW,215,0.0,0.0,93,0.00,,,0.00,oem by Ross Wheeler,2013-05-10 04:05:00,
2013-05-10 00:10:00,56.4,55.0,29.92,SW,215,0.0,0.0,93,0.00,,,0.00,oem by Ross Wheeler,2013-05-10 04:10:00,
2013-05-10 00:15:00,56.2,54.0,29.92,SW,215,0.0,0.0,93,0.00,,,0.00,oem by Ross Wheeler,2013-05-10 04:15:00,
2013-05-10 00:25:00,56.1,54.0,29.92,SW,215,0.0,0.0,94,0.00,,,0.00,oem by Ross Wheeler,2013-05-10 04:25:00,
2013-05-10 00:30:00,56.1,54.0,29.92,SW,215,0.0,0.0,94,0.00,,,0.00,oem by Ross Wheeler,2013-05-10 04:30:00,
2013-05-10 00:40:00,55.9,54.0,29.92,SW,215,0.0,0.0,94,0.00,,,0.00,oem by Ross Wheeler,2013-05-10 04:40:00,
2013-05-10 00:45:00,55.9,54.0,29.92,SW,215,0.0,0.0,94,0.00,,,0.00,oem by Ross Wheeler,2013-05-10 04:45:00,
2013-05-10 00:55:00,55.9,54.0,29.92,SW,215,0.0,0.0,94,0.00,,,0.00,oem by Ross Wheeler,2013-05-10 04:55:00,
2013-05-10 01:00:00,55.8,54.0,29.92,SW,215,0.0,0.0,94,0.00,,,0.00,oem by Ross Wheeler,2013-05-10 05:00:00,
2013-05-10 01:10:00,55.5,54.0,29.92,SW,215,0.0,0.0,94,0.00,,,0.00,oem by Ross Wheeler,2013-05-10 05:10:00,
2013-05-10 01:15:00,55.4,54.0,29.92,SW,215,0.0,0.0,94,0.00,,,0.00,oem by Ross Wheeler,2013-05-10 05:15:00,
2013-05-10 01:25:00,55.4,54.0,29.92,SW,215,1.0,0.0,95,0.00,,,0.00,oem by Ross Wheeler,2013-05-10 05:25:00,
2013-05-10 01:30:00,55.4,54.0,29.92,SW,215,0.0,0.0,95,0.00,,,0.00,oem by Ross Wheeler,2013-05-10 05:30:00,
2013-05-10 01:40:00,55.7,54.0,29.91,SW,215,0.0,0.0,95,0.00,,,0.00,oem by Ross Wheeler,2013-05-10 05:40:00,
2013-05-10 01:45:00,55.7,54.0,29.91,SW,215,0.0,0.0,95,0.00,,,0.00,oem by Ross Wheeler,2013-05-10 05:45:00,
2013-05-10 01:55:00,55.4,54.0,29.91,SW,215,0.0,0.0,95,0.00,,,0.00,oem by Ross Wheeler,2013-05-10 05:55:00,
2013-05-10 02:00:00,55.2,54.0,29.91,SW,215,0.0,0.0,95,0.00,,,0.00,oem by Ross Wheeler,2013-05-10 06:00:00,
2013-05-10 02:10:00,55.2,54.0,29.91,SW,215,0.0,0.0,95,0.00,,,0.00,oem by Ross Wheeler,2013-05-10 06:10:00,
2013-05-10 02:15:00,55.2,54.0,29.91,SW,215,0.0,0.0,95,0.00,,,0.00,oem by Ross Wheeler,2013-05-10 06:15:00,
2013-05-10 02:25:00,55.2,54.0,29.91,SW,215,0.0,0.0,95,0.00,,,0.00,oem by Ross Wheeler,2013-05-10 06:25:00,
2013-05-10 02:30:00,55.2,54.0,29.91,SW,215,0.0,0.0,95,0.00,,,0.00,oem by Ross Wheeler,2013-05-10 06:30:00,
2013-05-10 02:40:00,55.1,54.0,29.91,SW,215,0.0,0.0,95,0.00,,,0.00,oem by Ross Wheeler,2013-05-10 06:40:00,
2013-05-10 02:45:00,54.8,53.0,29.91,SW,215,0.0,0.0,95,0.00,,,0.00,oem by Ross Wheeler,2013-05-10 06:45:00,
2013-05-10 02:55:00,54.6,53.0,29.91,SW,215,0.0,0.0,95,0.00,,,0.00,oem by Ross Wheeler,2013-05-10 06:55:00,
2013-05-10 03:00:00,54.5,53.0,29.91,SW,215,0.0,0.0,95,0.00,,,0.00,oem by Ross Wheeler,2013-05-10 07:00:00,
2013-05-10 03:10:00,54.5,53.0,29.91,SW,215,0.0,0.0,95,0.00,,,0.00,oem by Ross Wheeler,2013-05-10 07:10:00,
2013-05-10 03:15:00,54.3,53.0,29.91,SW,215,0.0,0.0,95,0.00,,,0.00,oem by Ross Wheeler,2013-05-10 07:15:00,
2013-05-10 03:25:00,54.5,53.0,29.92,SW,215,0.0,0.0,96,0.00,,,0.00,oem by Ross Wheeler,2013-05-10 07:25:00,
2013-05-10 03:30:00,54.6,54.0,29.92,SW,215,0.0,0.0,96,0.00,,,0.00,oem by Ross Wheeler,2013-05-10 07:30:00,
2013-05-10 03:40:00,54.8,54.0,29.92,SW,215,0.0,0.0,96,0.00,,,0.00,oem by Ross Wheeler,2013-05-10 07:40:00,
2013-05-10 03:45:00,54.9,54.0,29.92,SW,215,0.0,0.0,96,0.00,,,0.00,oem by Ross Wheeler,2013-05-10 07:45:00,
2013-05-10 03:55:00,55.1,54.0,29.92,SW,215,0.0,0.0,96,0.00,,,0.00,oem by Ross Wheeler,2013-05-10 07:55:00,
2013-05-10 04:00:00,55.2,54.0,29.92,SW,215,0.0,0.0,96,0.00,,,0.00,oem by Ross Wheeler,2013-05-10 08:00:00,
2013-05-10 04:10:00,55.5,54.0,29.92,SW,215,0.0,0.0,96,0.00,,,0.00,oem by Ross Wheeler,2013-05-10 08:10:00,
2013-05-10 04:15:00,55.5,54.0,29.92,SW,215,0.0,0.0,96,0.00,,,0.00,oem by Ross Wheeler,2013-05-10 08:15:00,
2013-05-10 04:25:00,55.5,54.0,29.92,SW,215,0.0,0.0,96,0.00,,,0.00,oem by Ross Wheeler,2013-05-10 08:25:00,
2013-05-10 04:30:00,55.5,54.0,29.92,SW,215,0.0,0.0,96,0.00,,,0.00,oem by Ross Wheeler,2013-05-10 08:30:00,
2013-05-10 04:40:00,55.5,54.0,29.93,SW,215,0.0,0.0,96,0.00,,,0.01,oem by Ross Wheeler,2013-05-10 08:40:00,
2013-05-10 04:45:00,55.5,54.0,29.93,SW,215,0.0,0.0,96,0.00,,,0.01,oem by Ross Wheeler,2013-05-10 08:45:00,
2013-05-10 04:55:00,55.5,54.0,29.93,WSW,254,1.0,0.0,96,0.00,,,0.01,oem by Ross Wheeler,2013-05-10 08:55:00,
2013-05-10 05:00:00,55.4,54.0,29.93,WSW,254,1.0,0.0,96,0.00,,,0.01,oem by Ross Wheeler,2013-05-10 09:00:00,
2013-05-10 05:10:00,55.4,54.0,29.93,WSW,254,2.0,0.0,96,0.00,,,0.01,oem by Ross Wheeler,2013-05-10 09:10:00,
2013-05-10 05:15:00,55.4,54.0,29.93,WSW,254,0.0,0.0,96,0.00,,,0.01,oem by Ross Wheeler,2013-05-10 09:15:00,
2013-05-10 05:25:00,55.4,54.0,29.93,WSW,254,0.0,0.0,96,0.00,,,0.01,oem by Ross Wheeler,2013-05-10 09:25:00,
2013-05-10 05:30:00,55.4,54.0,29.93,WSW,254,1.0,0.0,96,0.00,,,0.01,oem by Ross Wheeler,2013-05-10 09:30:00,
2013-05-10 05:40:00,55.4,54.0,29.94,WSW,254,0.0,0.0,96,0.00,,,0.01,oem by Ross Wheeler,2013-05-10 09:40:00,
2013-05-10 05:45:00,55.2,54.0,29.94,WSW,254,0.0,0.0,96,0.00,,,0.01,oem by Ross Wheeler,2013-05-10 09:45:00,
2013-05-10 05:55:00,55.2,54.0,29.94,WSW,254,0.0,0.0,96,0.00,,,0.01,oem by Ross Wheeler,2013-05-10 09:55:00,
2013-05-10 06:00:00,55.2,54.0,29.94,WSW,254,0.0,0.0,96,0.00,,,0.01,oem by Ross Wheeler,2013-05-10 10:00:00,
2013-05-10 06:10:00,55.2,54.0,29.95,WSW,254,0.0,0.0,96,0.00,,,0.01,oem by Ross Wheeler,2013-05-10 10:10:00,
2013-05-10 06:15:00,55.2,54.0,29.95,WSW,254,0.0,0.0,96,0.00,,,0.01,oem by Ross Wheeler,2013-05-10 10:15:00,
2013-05-10 06:25:00,55.4,54.0,29.95,WSW,254,0.0,0.0,96,0.00,,,0.01,oem by Ross Wheeler,2013-05-10 10:25:00,
2013-05-10 06:30:00,55.5,54.0,29.95,WSW,254,0.0,0.0,96,0.00,,,0.01,oem by Ross Wheeler,2013-05-10 10:30:00,
2013-05-10 06:40:00,55.7,55.0,29.96,SW,234,0.0,0.0,96,0.00,,,0.01,oem by Ross Wheeler,2013-05-10 10:40:00,
2013-05-10 06:45:00,55.8,55.0,29.96,SW,234,1.0,0.0,96,0.00,,,0.01,oem by Ross Wheeler,2013-05-10 10:45:00,
2013-05-10 06:55:00,56.1,55.0,29.96,SW,230,1.0,0.0,96,0.00,,,0.01,oem by Ross Wheeler,2013-05-10 10:55:00,
2013-05-10 07:00:00,56.2,55.0,29.96,SW,223,0.0,0.0,96,0.00,,,0.01,oem by Ross Wheeler,2013-05-10 11:00:00,
2013-05-10 07:10:00,56.7,56.0,29.96,SW,227,1.0,0.0,96,0.00,,,0.01,oem by Ross Wheeler,2013-05-10 11:10:00,
2013-05-10 07:15:00,57.0,56.0,29.96,SW,217,3.0,0.0,96,0.00,,,0.01,oem by Ross Wheeler,2013-05-10 11:15:00,
2013-05-10 07:25:00,57.3,56.0,29.96,SW,217,0.0,0.0,96,0.00,,,0.01,oem by Ross Wheeler,2013-05-10 11:25:00,
2013-05-10 07:30:00,57.6,57.0,29.96,SSW,212,3.0,0.0,96,0.00,,,0.01,oem by Ross Wheeler,2013-05-10 11:30:00,
2013-05-10 07:40:00,58.1,57.0,29.97,SW,222,2.0,0.0,96,0.00,,,0.01,oem by Ross Wheeler,2013-05-10 11:40:00,
2013-05-10 07:45:00,58.2,57.0,29.97,SW,222,0.0,0.0,95,0.00,,,0.01,oem by Ross Wheeler,2013-05-10 11:45:00,
2013-05-10 07:55:00,58.5,57.0,29.96,WSW,241,0.0,0.0,95,0.00,,,0.01,oem by Ross Wheeler,2013-05-10 11:55:00,
2013-05-10 08:00:00,58.7,57.0,29.96,WSW,246,0.0,0.0,95,0.00,,,0.01,oem by Ross Wheeler,2013-05-10 12:00:00,
2013-05-10 08:10:00,59.1,57.0,29.97,WSW,254,0.0,0.0,94,0.00,,,0.01,oem by Ross Wheeler,2013-05-10 12:10:00,
2013-05-10 08:15:00,59.4,57.0,29.97,WSW,254,0.0,0.0,93,0.00,,,0.01,oem by Ross Wheeler,2013-05-10 12:15:00,
2013-05-10 08:25:00,59.9,58.0,29.96,WSW,254,0.0,0.0,92,0.00,,,0.01,oem by Ross Wheeler,2013-05-10 12:25:00,
2013-05-10 08:30:00,60.1,58.0,29.96,WSW,254,0.0,0.0,92,0.00,,,0.01,oem by Ross Wheeler,2013-05-10 12:30:00,
2013-05-10 08:40:00,60.7,58.0,29.96,WSW,254,0.0,0.0,90,0.00,,,0.01,oem by Ross Wheeler,2013-05-10 12:40:00,
2013-05-10 08:45:00,61.0,58.0,29.96,WSW,254,0.0,0.0,89,0.00,,,0.01,oem by Ross Wheeler,2013-05-10 12:45:00,
2013-05-10 08:55:00,61.6,57.0,29.96,WSW,254,0.0,0.0,86,0.00,,,0.01,oem by Ross Wheeler,2013-05-10 12:55:00,
2013-05-10 09:00:00,61.8,58.0,29.96,WSW,254,0.0,0.0,86,0.00,,,0.01,oem by Ross Wheeler,2013-05-10 13:00:00,
2013-05-10 09:10:00,62.7,58.0,29.96,WSW,241,0.0,0.0,83,0.00,,,0.01,oem by Ross Wheeler,2013-05-10 13:10:00,
2013-05-10 09:15:00,63.2,58.0,29.96,WSW,241,0.0,0.0,82,0.00,,,0.01,oem by Ross Wheeler,2013-05-10 13:15:00,
2013-05-10 09:25:00,64.2,57.0,29.96,WSW,241,0.0,0.0,78,0.00,,,0.01,oem by Ross Wheeler,2013-05-10 13:25:00,
2013-05-10 09:30:00,64.7,57.0,29.96,SW,216,1.0,0.0,77,0.00,,,0.01,oem by Ross Wheeler,2013-05-10 13:30:00,
2013-05-10 09:40:00,65.6,58.0,29.96,WSW,248,0.0,0.0,75,0.00,,,0.01,oem by Ross Wheeler,2013-05-10 13:40:00,
2013-05-10 09:45:00,66.0,58.0,29.96,West,268,0.0,0.0,76,0.00,,,0.01,oem by Ross Wheeler,2013-05-10 13:45:00,
2013-05-10 09:55:00,66.6,58.0,29.96,SW,223,0.0,0.0,74,0.00,,,0.01,oem by Ross Wheeler,2013-05-10 13:55:00,
2013-05-10 10:00:00,67.0,60.0,29.96,SW,223,1.0,0.0,77,0.00,,,0.01,oem by Ross Wheeler,2013-05-10 14:00:00,
2013-05-10 10:10:00,67.6,59.0,29.96,SW,223,0.0,0.0,73,0.00,,,0.01,oem by Ross Wheeler,2013-05-10 14:10:00,
2013-05-10 10:15:00,68.1,58.0,29.96,SW,231,1.0,0.0,70,0.00,,,0.01,oem by Ross Wheeler,2013-05-10 14:15:00,
2013-05-10 10:25:00,68.8,58.0,29.96,SW,224,0.0,0.0,68,0.00,,,0.01,oem by Ross Wheeler,2013-05-10 14:25:00,
2013-05-10 10:30:00,69.3,57.0,29.96,SW,224,0.0,0.0,66,0.00,,,0.01,oem by Ross Wheeler,2013-05-10 14:30:00,
2013-05-10 10:40:00,70.0,57.0,29.96,SW,224,1.0,0.0,63,0.00,,,0.01,oem by Ross Wheeler,2013-05-10 14:40:00,
2013-05-10 10:45:00,70.3,57.0,29.96,SW,224,0.0,0.0,62,0.00,,,0.01,oem by Ross Wheeler,2013-05-10 14:45:00,
2013-05-10 10:55:00,70.7,56.0,29.96,SSW,199,0.0,0.0,60,0.00,,,0.01,oem by Ross Wheeler,2013-05-10 14:55:00,
2013-05-10 11:00:00,71.0,57.0,29.96,SW,236,0.0,0.0,62,0.00,,,0.01,oem by Ross Wheeler,2013-05-10 15:00:00,
2013-05-10 11:10:00,71.3,57.0,29.96,SSE,147,2.0,0.0,60,0.00,,,0.01,oem by Ross Wheeler,2013-05-10 15:10:00,
2013-05-10 11:15:00,71.5,58.0,29.96,SE,143,1.0,0.0,62,0.00,,,0.01,oem by Ross Wheeler,2013-05-10 15:15:00,
2013-05-10 11:25:00,71.9,56.0,29.95,SSW,213,2.0,0.0,58,0.00,,,0.01,oem by Ross Wheeler,2013-05-10 15:25:00,
2013-05-10 11:30:00,72.2,56.0,29.95,SW,226,5.0,0.0,57,0.00,,,0.01,oem by Ross Wheeler,2013-05-10 15:30:00,
2013-05-10 11:40:00,73.2,57.0,29.95,SSW,210,2.0,0.0,58,0.00,,,0.01,oem by Ross Wheeler,2013-05-10 15:40:00,
2013-05-10 11:45:00,73.4,56.0,29.95,SW,216,5.0,0.0,55,0.00,,,0.01,oem by Ross Wheeler,2013-05-10 15:45:00,
2013-05-10 11:55:00,74.3,56.0,29.94,SSW,198,3.0,0.0,54,0.00,,,0.01,oem by Ross Wheeler,2013-05-10 15:55:00,
2013-05-10 12:00:00,74.8,58.0,29.94,SSE,165,1.0,0.0,57,0.00,,,0.01,oem by Ross Wheeler,2013-05-10 16:00:00,
2013-05-10 12:10:00,76.0,56.0,29.94,SSW,212,10.0,0.0,51,0.00,,,0.01,oem by Ross Wheeler,2013-05-10 16:10:00,
2013-05-10 12:15:00,76.0,56.0,29.94,SSW,200,3.0,0.0,51,0.00,,,0.01,oem by Ross Wheeler,2013-05-10 16:15:00,
2013-05-10 12:25:00,76.8,56.0,29.94,SSE,162,3.0,0.0,49,0.00,,,0.01,oem by Ross Wheeler,2013-05-10 16:25:00,
2013-05-10 12:30:00,77.3,58.0,29.94,SSW,205,1.0,0.0,51,0.00,,,0.01,oem by Ross Wheeler,2013-05-10 16:30:00,
2013-05-10 12:40:00,77.8,58.0,29.94,South,191,7.0,0.0,50,0.00,,,0.01,oem by Ross Wheeler,2013-05-10 16:40:00,
2013-05-10 12:45:00,77.3,56.0,29.94,SSW,195,6.0,0.0,48,0.00,,,0.01,oem by Ross Wheeler,2013-05-10 16:45:00,
2013-05-10 12:55:00,76.8,58.0,29.93,SSW,203,6.0,0.0,52,0.00,,,0.01,oem by Ross Wheeler,2013-05-10 16:55:00,
2013-05-10 13:00:00,76.9,59.0,29.93,West,265,1.0,0.0,54,0.00,,,0.01,oem by Ross Wheeler,2013-05-10 17:00:00,
2013-05-10 13:10:00,77.5,57.0,29.93,SW,217,1.0,0.0,49,0.00,,,0.01,oem by Ross Wheeler,2013-05-10 17:10:00,
2013-05-10 13:15:00,77.8,59.0,29.93,WSW,255,4.0,0.0,52,0.00,,,0.01,oem by Ross Wheeler,2013-05-10 17:15:00,
2013-05-10 13:25:00,78.0,58.0,29.93,SW,216,5.0,0.0,51,0.00,,,0.01,oem by Ross Wheeler,2013-05-10 17:25:00,
2013-05-10 13:30:00,78.4,60.0,29.93,WSW,253,4.0,0.0,53,0.00,,,0.01,oem by Ross Wheeler,2013-05-10 17:30:00,
2013-05-10 13:40:00,79.3,60.0,29.93,WNW,294,0.0,0.0,51,0.00,,,0.01,oem by Ross Wheeler,2013-05-10 17:40:00,
2013-05-10 13:45:00,79.0,58.0,29.93,SSW,210,0.0,0.0,49,0.00,,,0.01,oem by Ross Wheeler,2013-05-10 17:45:00,
2013-05-10 13:55:00,78.8,58.0,29.92,South,179,2.0,0.0,49,0.00,,,0.01,oem by Ross Wheeler,2013-05-10 17:55:00,
2013-05-10 14:00:00,79.1,59.0,29.92,SW,223,2.0,0.0,51,0.00,,,0.01,oem by Ross Wheeler,2013-05-10 18:00:00,
2013-05-10 14:10:00,79.0,59.0,29.92,SSW,207,1.0,0.0,50,0.00,,,0.01,oem by Ross Wheeler,2013-05-10 18:10:00,
2013-05-10 14:15:00,79.0,59.0,29.92,WSW,241,1.0,0.0,50,0.00,,,0.01,oem by Ross Wheeler,2013-05-10 18:15:00,
2013-05-10 14:25:00,79.7,57.0,29.92,South,183,0.0,0.0,46,0.00,,,0.01,oem by Ross Wheeler,2013-05-10 18:25:00,
2013-05-10 14:30:00,80.3,58.0,29.92,SE,140,3.0,0.0,46,0.00,,,0.01,oem by Ross Wheeler,2013-05-10 18:30:00,
2013-05-10 14:40:00,79.9,61.0,29.92,SSE,151,1.0,0.0,53,0.00,,,0.01,oem by Ross Wheeler,2013-05-10 18:40:00,
2013-05-10 14:45:00,79.3,62.0,29.92,ESE,119,1.0,0.0,55,0.00,,,0.01,oem by Ross Wheeler,2013-05-10 18:45:00,
2013-05-10 14:55:00,77.7,61.0,29.92,East,86,1.0,0.0,56,0.00,,,0.01,oem by Ross Wheeler,2013-05-10 18:55:00,
2013-05-10 15:00:00,77.1,62.0,29.92,ESE,107,0.0,0.0,59,0.00,,,0.01,oem by Ross Wheeler,2013-05-10 19:00:00,
2013-05-10 15:10:00,76.0,60.0,29.92,SSE,161,2.0,0.0,58,0.00,,,0.01,oem by Ross Wheeler,2013-05-10 19:10:00,
2013-05-10 15:15:00,75.7,60.0,29.92,SE,126,2.0,0.0,59,0.00,,,0.01,oem by Ross Wheeler,2013-05-10 19:15:00,
2013-05-10 15:25:00,74.8,60.0,29.91,ESE,103,2.0,0.0,61,0.00,,,0.01,oem by Ross Wheeler,2013-05-10 19:25:00,
2013-05-10 15:30:00,74.3,59.0,29.91,SE,131,2.0,0.0,59,0.00,,,0.01,oem by Ross Wheeler,2013-05-10 19:30:00,
2013-05-10 15:40:00,73.6,59.0,29.91,ESE,121,1.0,0.0,61,0.00,,,0.01,oem by Ross Wheeler,2013-05-10 19:40:00,
2013-05-10 15:45:00,73.4,59.0,29.91,East,100,2.0,0.0,60,0.00,,,0.01,oem by Ross Wheeler,2013-05-10 19:45:00,
2013-05-10 15:55:00,73.1,61.0,29.91,ESE,104,3.0,0.0,66,0.00,,,0.01,oem by Ross Wheeler,2013-05-10 19:55:00,
2013-05-10 16:00:00,72.5,59.0,29.91,East,90,2.0,0.0,62,0.00,,,0.01,oem by Ross Wheeler,2013-05-10 20:00:00,
2013-05-10 16:10:00,72.4,60.0,29.91,SE,145,2.0,0.0,65,0.00,,,0.01,oem by Ross Wheeler,2013-05-10 20:10:00,
2013-05-10 16:15:00,72.7,61.0,29.91,East,97,1.0,0.0,66,0.00,,,0.01,oem by Ross Wheeler,2013-05-10 20:15:00,
2013-05-10 16:25:00,72.2,61.0,29.90,ESE,114,0.0,0.0,67,0.00,,,0.01,oem by Ross Wheeler,2013-05-10 20:25:00,
2013-05-10 16:30:00,72.4,60.0,29.90,SSE,148,3.0,0.0,66,0.00,,,0.01,oem by Ross Wheeler,2013-05-10 20:30:00,
2013-05-10 16:40:00,72.7,61.0,29.90,SE,131,2.0,0.0,66,0.00,,,0.01,oem by Ross Wheeler,2013-05-10 20:40:00,
2013-05-10 16:45:00,72.7,61.0,29.90,ESE,104,1.0,0.0,66,0.00,,,0.01,oem by Ross Wheeler,2013-05-10 20:45:00,
2013-05-10 16:55:00,72.4,60.0,29.90,East,92,2.0,0.0,66,0.00,,,0.01,oem by Ross Wheeler,2013-05-10 20:55:00,
2013-05-10 17:00:00,71.9,60.0,29.90,East,100,2.0,0.0,67,0.00,,,0.01,oem by Ross Wheeler,2013-05-10 21:00:00,
2013-05-10 17:10:00,71.5,61.0,29.90,ESE,121,0.0,0.0,69,0.00,,,0.01,oem by Ross Wheeler,2013-05-10 21:10:00,
2013-05-10 17:15:00,71.5,61.0,29.90,ESE,102,1.0,0.0,70,0.00,,,0.01,oem by Ross Wheeler,2013-05-10 21:15:00,
2013-05-10 17:25:00,71.3,61.0,29.90,SE,134,1.0,0.0,69,0.00,,,0.01,oem by Ross Wheeler,2013-05-10 21:25:00,
2013-05-10 17:30:00,71.2,61.0,29.90,SE,134,2.0,0.0,69,0.00,,,0.01,oem by Ross Wheeler,2013-05-10 21:30:00,
2013-05-10 17:40:00,71.0,61.0,29.90,SE,133,1.0,0.0,71,0.00,,,0.01,oem by Ross Wheeler,2013-05-10 21:40:00,
2013-05-10 17:45:00,70.7,60.0,29.90,ESE,123,2.0,0.0,70,0.00,,,0.01,oem by Ross Wheeler,2013-05-10 21:45:00,
2013-05-10 17:55:00,70.1,61.0,29.90,SE,131,0.0,0.0,72,0.00,,,0.01,oem by Ross Wheeler,2013-05-10 21:55:00,
2013-05-10 18:00:00,69.8,60.0,29.90,ESE,104,1.0,0.0,72,0.00,,,0.01,oem by Ross Wheeler,2013-05-10 22:00:00,
2013-05-10 18:05:00,69.5,60.0,29.89,ESE,114,2.0,0.0,72,0.00,,,0.01,oem by Ross Wheeler,2013-05-10 22:05:00,
2013-05-10 18:10:00,69.1,60.0,29.89,ESE,109,0.0,0.0,72,0.00,,,0.01,oem by Ross Wheeler,2013-05-10 22:10:00,
2013-05-10 18:15:00,68.8,60.0,29.89,ESE,109,1.0,0.0,73,0.00,,,0.01,oem by Ross Wheeler,2013-05-10 22:15:00,
2013-05-10 18:25:00,68.3,60.0,29.89,ESE,109,1.0,0.0,75,0.00,,,0.01,oem by Ross Wheeler,2013-05-10 22:25:00,
2013-05-10 18:30:00,68.1,60.0,29.89,ESE,109,0.0,0.0,75,0.00,,,0.01,oem by Ross Wheeler,2013-05-10 22:30:00,
2013-05-10 18:40:00,67.8,60.0,29.88,ESE,109,0.0,0.0,76,0.00,,,0.01,oem by Ross Wheeler,2013-05-10 22:40:00,
2013-05-10 18:45:00,67.8,60.0,29.88,ESE,109,0.0,0.0,75,0.00,,,0.01,oem by Ross Wheeler,2013-05-10 22:45:00,
2013-05-10 18:55:00,67.6,59.0,29.88,ESE,109,0.0,0.0,75,0.00,,,0.01,oem by Ross Wheeler,2013-05-10 22:55:00,
2013-05-10 19:00:00,67.5,59.0,29.88,ESE,109,1.0,0.0,74,0.00,,,0.01,oem by Ross Wheeler,2013-05-10 23:00:00,
2013-05-10 19:10:00,67.1,59.0,29.88,ESE,109,1.0,0.0,75,0.00,,,0.01,oem by Ross Wheeler,2013-05-10 23:10:00,
2013-05-10 19:15:00,67.0,59.0,29.88,ESE,109,0.0,0.0,75,0.00,,,0.01,oem by Ross Wheeler,2013-05-10 23:15:00,
2013-05-10 19:25:00,66.6,59.0,29.88,ESE,123,0.0,0.0,76,0.00,,,0.01,oem by Ross Wheeler,2013-05-10 23:25:00,
2013-05-10 19:30:00,66.5,59.0,29.88,SE,137,0.0,0.0,77,0.00,,,0.01,oem by Ross Wheeler,2013-05-10 23:30:00,
2013-05-10 19:40:00,66.3,59.0,29.88,SE,137,0.0,0.0,77,0.00,,,0.01,oem by Ross Wheeler,2013-05-10 23:40:00,
2013-05-10 19:45:00,66.1,59.0,29.88,SE,137,0.0,0.0,78,0.00,,,0.01,oem by Ross Wheeler,2013-05-10 23:45:00,
2013-05-10 19:55:00,65.8,59.0,29.88,SE,137,0.0,0.0,79,0.00,,,0.01,oem by Ross Wheeler,2013-05-10 23:55:00,
2013-05-10 20:00:00,65.6,59.0,29.88,SE,137,0.0,0.0,80,0.00,,,0.01,oem by Ross Wheeler,2013-05-11 00:00:00,
2013-05-10 20:10:00,65.5,59.0,29.88,SE,135,0.0,0.0,80,0.00,,,0.01,oem by Ross Wheeler,2013-05-11 00:10:00,
2013-05-10 20:15:00,65.2,59.0,29.88,SE,135,0.0,0.0,81,0.00,,,0.01,oem by Ross Wheeler,2013-05-11 00:15:00,
2013-05-10 20:25:00,65.0,59.0,29.87,SE,137,0.0,0.0,81,0.00,,,0.01,oem by Ross Wheeler,2013-05-11 00:25:00,
2013-05-10 20:30:00,64.8,59.0,29.87,SE,137,0.0,0.0,81,0.00,,,0.01,oem by Ross Wheeler,2013-05-11 00:30:00,
2013-05-10 20:40:00,64.7,59.0,29.87,SE,137,0.0,0.0,82,0.00,,,0.01,oem by Ross Wheeler,2013-05-11 00:40:00,
2013-05-10 20:45:00,64.7,59.0,29.87,SE,137,0.0,0.0,82,0.00,,,0.01,oem by Ross Wheeler,2013-05-11 00:45:00,
2013-05-10 21:10:00,64.0,59.0,29.88,SE,137,0.0,0.0,84,0.00,,,0.01,oem by Ross Wheeler,2013-05-11 01:10:00,
2013-05-10 21:15:00,63.9,59.0,29.88,SE,137,0.0,0.0,84,0.00,,,0.01,oem by Ross Wheeler,2013-05-11 01:15:00,
2013-05-10 21:25:00,63.7,59.0,29.89,South,178,2.0,0.0,84,0.00,,,0.01,oem by Ross Wheeler,2013-05-11 01:25:00,
2013-05-10 21:30:00,63.5,59.0,29.89,South,178,0.0,0.0,84,0.00,,,0.01,oem by Ross Wheeler,2013-05-11 01:30:00,
2013-05-10 21:40:00,63.5,59.0,29.89,South,178,0.0,0.0,84,0.00,,,0.01,oem by Ross Wheeler,2013-05-11 01:40:00,
2013-05-10 21:45:00,63.5,59.0,29.89,South,178,0.0,0.0,84,0.00,,,0.01,oem by Ross Wheeler,2013-05-11 01:45:00,
2013-05-10 21:55:00,63.4,58.0,29.89,SW,215,0.0,0.0,83,0.00,,,0.01,oem by Ross Wheeler,2013-05-11 01:55:00,
2013-05-10 22:00:00,63.5,58.0,29.89,SSW,195,0.0,0.0,81,0.00,,,0.01,oem by Ross Wheeler,2013-05-11 02:00:00,
2013-05-10 22:10:00,64.0,57.0,29.88,South,182,0.0,0.0,77,0.00,,,0.01,oem by Ross Wheeler,2013-05-11 02:10:00,
2013-05-10 22:15:00,64.4,57.0,29.88,South,186,0.0,0.0,77,0.00,,,0.01,oem by Ross Wheeler,2013-05-11 02:15:00,
2013-05-10 22:25:00,64.7,57.0,29.87,SSE,165,0.0,0.0,75,0.00,,,0.01,oem by Ross Wheeler,2013-05-11 02:25:00,
2013-05-10 22:30:00,64.8,57.0,29.87,South,189,0.0,0.0,75,0.00,,,0.01,oem by Ross Wheeler,2013-05-11 02:30:00,
2013-05-10 22:40:00,65.0,57.0,29.87,SSE,150,0.0,0.0,74,0.00,,,0.01,oem by Ross Wheeler,2013-05-11 02:40:00,
2013-05-10 22:45:00,65.0,57.0,29.87,South,174,1.0,0.0,74,0.00,,,0.01,oem by Ross Wheeler,2013-05-11 02:45:00,
2013-05-10 22:55:00,65.0,58.0,29.86,South,174,0.0,0.0,77,0.00,,,0.01,oem by Ross Wheeler,2013-05-11 02:55:00,
2013-05-10 23:00:00,64.8,57.0,29.86,SSE,152,2.0,0.0,77,0.00,,,0.01,oem by Ross Wheeler,2013-05-11 03:00:00,
2013-05-10 23:10:00,64.5,58.0,29.86,SSE,161,0.0,0.0,79,0.00,,,0.01,oem by Ross Wheeler,2013-05-11 03:10:00,
2013-05-10 23:15:00,64.4,58.0,29.86,SSE,161,0.0,0.0,79,0.00,,,0.01,oem by Ross Wheeler,2013-05-11 03:15:00,
2013-05-10 23:25:00,63.9,57.0,29.85,SSE,161,0.0,0.0,79,0.00,,,0.01,oem by Ross Wheeler,2013-05-11 03:25:00,
2013-05-10 23:30:00,63.5,57.0,29.85,SSE,161,0.0,0.0,79,0.00,,,0.01,oem by Ross Wheeler,2013-05-11 03:30:00,
2013-05-10 23:40:00,64.0,56.0,29.85,SW,222,3.0,0.0,76,0.00,,,0.01,oem by Ross Wheeler,2013-05-11 03:40:00,
2013-05-10 23:45:00,64.4,56.0,29.85,SW,215,3.0,0.0,74,0.00,,,0.01,oem by Ross Wheeler,2013-05-11 03:45:00,
2013-05-10 23:55:00,65.5,56.0,29.87,SW,224,7.0,0.0,71,0.00,,,0.01,oem by Ross Wheeler,2013-05-11 03:55:00,